Regional Weather Roundup
Issued by NWS

Home | Current Version | Previous Version | Text Only | Print | Product List | Glossary Off
Versions: 1 2 3 4 5 6 7 8 9 10 11 12 13 14 15 16 17 18 19 20 21 22 23 24 25 26 27 28 29 30 31 32 33 34 35 36 37 38 39 40 41 42 43 44 45 46 47 48 49 50

000
ASUS43 KIND 260309
RWRIN

WEATHER ROUNDUP FOR INDIANA
NATIONAL WEATHER SERVICE INDIANAPOLIS IN
1100 PM EDT MON MAY 25 2015

NOTE: "FAIR" INDICATES FEW OR NO CLOUDS BELOW 12,000 FEET WITH NO
SIGNIFICANT WEATHER AND/OR OBSTRUCTIONS TO VISIBILITY.

* - STATION DOES NOT REPORT WEATHER SUCH AS PRECIPITATION OR FOG.

+ - STATION NOT QUALITY CONTROLLED BY THE NATIONAL WEATHER SERVICE.
    USE DATA WITH CAUTION...ESPECIALLY DEWPOINT AND RELATIVE
    HUMIDITY OBSERVATIONS.

INZ001>003-010>013-019-020-260400-
NORTHWEST INDIANA

CITY           SKY/WX    TMP DP  RH WIND       PRES   REMARKS
GARY /AIRPORT/ PTCLDY    77  59  53 S9        29.96R
KNOX *+        MOCLDY    72  59  64 S12       29.99R
LA PORTE +     MOCLDY    74  63  66 S8        29.99R
MICHIGAN CITY+ PTCLDY    72  57  60 S12       29.97R
MONTICELLO +   CLOUDY    71  64  80 S7        30.02R
RENSSELAER +   PTCLDY    72  63  73 S10       30.01R
VALPARAISO     PTCLDY    73  62  68 S12       29.98R

$$

LMZ046-743>745-260400-
SOUTHERN LAKE MICHIGAN

STATION/POSITION TIME  TEMP    WIND        PRES    WAVE
                       AIR SEA DIR/SP/G            HT
                 (UTC) (F)     (DEG/KT/KT) (MB)    (FT)
BURNS HARBOR     0300   75     190/ 12/ 14 1014.9R
MICHIGAN CITY    0300   75     160/ 10/ 14   N/A
5NW MICH CITY    0300   63 52  200/  6/  8   N/A     1

$$

INZ004-005-014>016-021>024-260400-
NORTH CENTRAL INDIANA

CITY           SKY/WX    TMP DP  RH WIND       PRES   REMARKS
GOSHEN         CLOUDY    72  62  71 S13       30.00R
LOGANSPORT +   CLOUDY    70  61  73 S9        30.04R
PERU/GRISSOM   CLOUDY    70  65  84 S10       30.03R
ROCHESTER +    CLOUDY    73  63  68 S7        30.03R
SOUTH BEND     CLOUDY    73  61  65 S10       29.99R
WARSAW +       CLOUDY    72  63  73 SW5       30.01R

$$

INZ006>009-017-018-025>027-260400-
NORTHEAST INDIANA

CITY           SKY/WX    TMP DP  RH WIND       PRES   REMARKS
ANGOLA *+      CLEAR     72  63  73 S7        30.02R
AUBURN +       MOCLDY    72  61  68 SW5       30.04R
FORT WAYNE     MOCLDY    71  63  75 S15       30.04R
HUNTINGTON +   CLOUDY    71  63  75 S7        30.03S

$$

INZ028-029-035-036-043>045-051>053-260400-
WEST CENTRAL INDIANA

CITY           SKY/WX    TMP DP  RH WIND       PRES   REMARKS
CRAWFORDSVL +  CLOUDY    68  60  75 S8        30.06R
GREENCASTLE +  CLOUDY    66  61  82 S6        30.08R
LAFAYETTE      CLOUDY    69  64  84 S8        30.02R
TERRE HAUTE    MOCLDY    70  65  84 S10       30.06R

$$

INZ030>032-037>040-046>048-054>057-064-065-260400-
CENTRAL INDIANA

CITY           SKY/WX    TMP DP  RH WIND       PRES   REMARKS
CP ATTERBURY + CLOUDY    68  63  83 S7        30.09R
FISHERS *+     CLOUDY    68  64  88 S8        30.07R
FRANKFORT +    CLOUDY    70  64  82 S8        30.07R
GREENWOOD *+   CLOUDY    68  63  83 S9        30.08R
INDIANAPOLIS   CLOUDY    69  63  81 S8        30.06R
-EAGLE CREEK   CLOUDY    69  64  84 S3        30.07R
KOKOMO *+      CLOUDY    70  63  78 S10       30.05R
MARION +       CLOUDY    70  61  74 S13       30.06R
MT COMFORT *+  CLOUDY    68  59  73 S6        30.08R
SHELBYVILLE    CLOUDY    70  64  81 S9        30.07R
ZIONSVILLE +   CLOUDY    71  62  73 S10       30.08R

$$

INZ033-034-041-042-049-050-058-059-260400-
EAST CENTRAL INDIANA

CITY           SKY/WX    TMP DP  RH WIND       PRES   REMARKS
MUNCIE         MOCLDY    70  63  78 S8        30.07R

$$

INZ060-061-067>069-081>083-085>088-260400-
SOUTHWEST INDIANA

CITY           SKY/WX    TMP DP  RH WIND       PRES   REMARKS
EVANSVILLE     CLOUDY    70  66  87 SE6       30.07S
HUNTINGBURG *+ CLOUDY    66  63  88 SE6       30.10R
WASHINGTON +   CLOUDY    68  64  87 S7        30.08R

$$

INZ062-063-066-070>080-084-089>092-260400-
SOUTH CENTRAL AND SOUTHEAST INDIANA

CITY           SKY/WX    TMP DP  RH WIND       PRES   REMARKS
BLOOMINGTON    CLOUDY    68  64  87 S8        30.09R
MADISON *+     MOCLDY    70  63  78 S7        30.13R
NORTH VERNON + CLOUDY    70  70 100 S5        30.11R
SEYMOUR +      CLOUDY    70  64  83 S5        30.10R

$$



USA.gov is the U.S. government's official web portal to all federal, state and local government web resources and services.